Home   Weather   Norwalk   Past weeks
Flag for USA

Past Weather in Norwalk, California, USA — Yesterday and Last 2 Weeks

Now
90 °F

Passing clouds.


Feels Like: 86 °F
Forecast: 90 / 61 °F
Wind: 6 mph from Northwest

Location: Fullerton Municipal Airport

Current Time: Oct 20, 2019 at 5:06:48 pm

Latest Report: Oct 20, 2019 at 3:53 pm


Visibility: 10 mi

Pressure: 29.81 "Hg

Humidity: 15%

Dew Point: 36 °F

Location of NorwalkLocation

Past Weather in Norwalk — Graph

°F

Norwalk Temperature Yesterday

Maximum temperature yesterday: 80 °F (at 3:53 pm)
Minimum temperature yesterday: 56 °F (at 6:53 am)
Average temperature yesterday: 67 °F

High & Low Weather Summary for the Past Weeks

 TemperatureHumidityPressure
High92 °F (Oct 16, 12:53 pm)87% (Oct 15, 3:53 am)30.01 "Hg (Oct 15, 3:53 am)
Low53 °F (Oct 12, 6:53 am)3% (Oct 11, 1:53 pm)29.75 "Hg (Oct 17, 3:53 pm)
Average69 °F54%29.87 "Hg
* Reported Oct 5 3:53 pm — Oct 20 3:53 pm, Norwalk. Weather by CustomWeather, © 2019

Note: Actual official high and low records may vary slightly from our data, if they occured in-between our weather recording intervals... More about our weather records

Advertising

Norwalk Weather History for the Previous 24 Hours

Scroll right to see more
 ConditionsComfort  
Time TempWeatherWind HumidityBarometerVisibility
3:53 pm
Sun, Oct 20
90 °FPassing clouds.6 mph15%29.81 "Hg10 mi
2:53 pm88 °FPassing clouds.8 mph18%29.83 "Hg10 mi
1:53 pm87 °FSunny.5 mph21%29.84 "Hg10 mi
12:53 pm83 °FPassing clouds.6 mph24%29.87 "Hg10 mi
11:53 am79 °FSunny.5 mph31%29.90 "Hg10 mi
10:53 am74 °FPassing clouds.3 mph41%29.91 "Hg10 mi
9:53 am69 °FPassing clouds.3 mph57%29.91 "Hg10 mi
8:53 am65 °FPassing clouds.3 mph59%29.90 "Hg10 mi
7:53 am60 °FPassing clouds.3 mph69%29.88 "Hg10 mi
6:53 am57 °FPassing clouds.6 mph74%29.87 "Hg10 mi
5:53 am57 °FClear.No wind78%29.86 "Hg10 mi
5:09 am58 °FPassing clouds.5 mph75%29.85 "Hg10 mi
4:53 am58 °FPassing clouds.6 mph75%29.85 "Hg10 mi
4:00 am59 °FPassing clouds.3 mph72%29.86 "Hg10 mi
3:22 am59 °FPassing clouds.No wind72%29.85 "Hg10 mi
2:53 am60 °FPassing clouds.5 mph72%29.85 "Hg10 mi
2:23 am61 °FPassing clouds.No wind72%29.86 "Hg10 mi
2:08 am60 °FPassing clouds.No wind72%29.85 "Hg10 mi
1:10 am61 °FPassing clouds.3 mph72%29.85 "Hg10 mi
12:53 am62 °FPassing clouds.3 mph73%29.85 "Hg10 mi
12:40 am61 °FPassing clouds.5 mph72%29.85 "Hg10 mi
11:53 pm
Sat, Oct 19
62 °FClear.3 mph70%29.85 "Hg10 mi
10:53 pm63 °FClear.No wind70%29.86 "Hg10 mi
9:53 pm65 °FClear.No wind68%29.85 "Hg10 mi
8:53 pm66 °FClear.No wind70%29.85 "Hg10 mi
7:53 pm67 °FClear.No wind63%29.85 "Hg10 mi
6:53 pm70 °FClear.7 mph57%29.84 "Hg10 mi
5:53 pm74 °FSunny.5 mph53%29.83 "Hg10 mi
Weather by CustomWeather, © 2019

See weather overview